User: anonymous   Login
Location: Unspecified
(0.0000°N, 0.0000°E)
Time: 14:15:58
(UTC+02:00)
Language:

Cosmos 1538 Rocket - Orbit

View from above orbital plane
View from above orbital plane
View from above satellite
View from above satellite

Ground track
Ground track

The orbit data is extracted from the following two-line orbital elements,

1 14760U 84019B   15149.17905146  .00000137  00000-0  56225-4 0  9998
2 14760 074.0452 057.5655 0026980 102.3776 049.5417 14.35693582635949
Epoch (UTC): 29 May 2015 04:17:50
Eccentricity: 0.0026980
inclination: 74.0452°
perigee height: 753 km
apogee height: 792 km
right ascension of ascending node: 57.5655°
argument of perigee: 102.3776°
revolutions per day: 14.35693582
mean anomaly at epoch: 49.5417°
orbit number at epoch: 63594

The dashed part of the orbit path shows where the satellite is in the earth's shadow,  

DLR